This is the latest recevied weather packets stored in our database for station/object EA3KZ-1. If no packets are shown the sender has not sent any weather packets the latest 10 day(s).
| Time | Temp. | Humidity | Pressure | Rain* | Wind** | Luminosity | Snow |
|---|---|---|---|---|---|---|---|
| 1787576734 | 28.89° C | 67% | 1008.9 hPa | 0 mm | - | - | - |
| 1787576131 | 30.56° C | 58% | 1009.4 hPa | 0 mm | - | - | - |
| 1787575528 | 30° C | 59% | 1009.5 hPa | 0 mm | - | - | - |
| 1787574926 | 30° C | 60% | 1009.7 hPa | 0 mm | - | - | - |
| 1787574323 | 28.33° C | 67% | 1009.8 hPa | 0 mm | - | - | - |
| 1787573721 | 28.33° C | 66% | 1009.9 hPa | 0 mm | - | - | - |
| 1787573118 | 28.33° C | 65% | 1010.1 hPa | 0 mm | - | - | - |
| 1787572515 | 28.89° C | 61% | 1010.2 hPa | 0 mm | - | - | - |
| 1787571973 | 29.44° C | 60% | 1010.3 hPa | 0 mm | - | - | - |
| 1787571370 | 30° C | 59% | 1010.1 hPa | 0 mm | - | - | - |
| 1787570768 | 29.44° C | 58% | 1010 hPa | 0 mm | - | - | - |
| 1787570165 | 29.44° C | 57% | 1010.2 hPa | 0 mm | - | - | - |
| 1787569563 | 29.44° C | 58% | 1010.1 hPa | 0 mm | - | - | - |
| 1787568960 | 28.89° C | 58% | 1010.3 hPa | 0 mm | - | - | - |
| 1787568357 | 28.89° C | 59% | 1010.4 hPa | 0 mm | - | - | - |
| 1787567755 | 28.89° C | 59% | 1010.6 hPa | 0 mm | - | - | - |
| 1787567152 | 28.89° C | 58% | 1010.7 hPa | 0 mm | - | - | - |
| 1787566550 | 28.89° C | 60% | 1010.6 hPa | 0 mm | - | - | - |
| 1787565947 | 28.33° C | 63% | 1011.2 hPa | 0 mm | - | - | - |
| 1787565344 | 28.33° C | 64% | 1011.4 hPa | 0 mm | - | - | - |
| 1787564742 | 28.33° C | 64% | 1011.3 hPa | 0 mm | - | - | - |
| 1787564140 | 27.78° C | 68% | 1011.4 hPa | 0 mm | - | - | - |
| 1787563537 | 27.22° C | 69% | 1011.2 hPa | 0 mm | - | - | - |
| 1787562934 | 26.67° C | 70% | 1011.2 hPa | 0 mm | - | - | - |
| 1787562331 | 26.67° C | 73% | 1011.8 hPa | 0 mm | - | - | - |
* Rain latest hour (hover to see other rain measurements)
** Current wind speed in m/s (hover to see current wind gust speed)